Regional Weather Roundup
Issued by NWS

Home | Current Version | Previous Version | Text Only | Print | Product List | Glossary Off
Versions: 1 2 3 4 5 6 7 8 9 10 11 12 13 14 15 16 17 18 19 20 21 22 23 24 25 26 27 28 29 30 31 32 33 34 35 36 37 38 39 40 41 42 43 44 45 46 47 48 49 50

197
ASUS44 KJAN 190110
RWRMS

MISSISSIPPI HOURLY WEATHER ROUNDUP
NATIONAL WEATHER SERVICE JACKSON MS
800 PM CDT THU SEP 18 2014

NOTE: "FAIR: INDICATES FEW OR NO CLOUDS BELOW 12,000 FEET WITH NO
SIGNIFICANT WEATHER AND/OR OBSTRUCTIONS TO VISIBILITY.

MSZ001>002-007>008-010>013-018>021-025>028-034>036-190200-
NORTHWEST MISSISSIPPI

CITY           SKY/WX    TMP DP  RH WIND       PRES   REMARKS
CLARKSDALE     FAIR      70  70 100 CALM      29.97R
CLEVELAND      FAIR      72  71  97 S5        29.95R
GREENWOOD      CLOUDY    71  68  90 S3        29.94R
GREENVILLE     MOCLDY    74  69  85 E9        29.94R
GRENADA        MOCLDY    68  66  94 CALM      29.96R
OLIVE BRANCH   CLOUDY    72  72 100 CALM      29.99R
OXFORD         CLOUDY    66  66 100 SE5       29.99F FOG
TUNICA         MOCLDY    70  66  88 SE5       29.97R
$$

MSZ003>006-009-014>017-022>024-029>033-037>039-190200-
NORTHEAST MISSISSIPPI

CITY           SKY/WX    TMP DP  RH WIND       PRES   REMARKS
COLUMBUS AFB   LGT RAIN  70  66  88 S7        29.96F
CORINTH          N/A     70  66  88 CALM      29.96S
GOLDN TRIANGLE TSTM      75  68  78 N5        29.98R
STARKVILLE     LGT RAIN  72  70  94 CALM      29.97R
TUPELO         LGT RAIN  74  67  78 W8        29.97R
$$

MSZ040-058-190200-
CENTRAL MISSISSIPPI

CITY           SKY/WX    TMP DP  RH WIND       PRES   REMARKS
JACKSON INTL   CLOUDY    71  67  87 E12       29.97R
JACKSON HAWKNS LGT RAIN  72  67  84 NE6       29.97R
MERIDIAN KEY   CLOUDY    74  70  87 CALM      29.95R
MERIDIAN NAS   CLOUDY    72  68  87 CALM      29.95R
RAYMOND        FAIR      72  66  83 E9        29.97R
VICKSBURG      CLOUDY    77  69  76 E8        29.93R
$$

MSZ059>079-190200-
SOUTH MISSISSIPPI

CITY           SKY/WX    TMP DP  RH WIND       PRES   REMARKS
BROOKHAVEN     FAIR      77  75  94 CALM      29.94S
COLUMBIA       FAIR      79  73  83 SE6       29.92R
HATTIESBURG    CLOUDY    76  69  79 S6        29.94R
MCCOMB         CLOUDY    80  74  81 NE3       29.92R
NATCHEZ        CLOUDY    77  73  88 CALM      29.91S
PINE BELT      CLOUDY   N/A N/A N/A S9G16     29.94R
$$

MSZ080>082-190200-
COASTAL MISSISSIPPI

CITY           SKY/WX    TMP DP  RH WIND       PRES   REMARKS
BAY ST LOUIS   RAIN      72  66  83 N5        29.91S
BILOXI         LGT RAIN  72  70  92 VRB3      29.92S
PASCAGOULA     CLOUDY    72  69  90 CALM      29.91F
GULFPORT       TSTM      72  70  93 W5        29.93R
$$



USA.gov is the U.S. government's official web portal to all federal, state and local government web resources and services.